GMMHGCLP

Guest
Details From GMMH - DAKHLA
To GCLP - Gran Canaria
Flight Number -
Tags generated
Created
Modified
Stats Distance 272 nm / 504 km
Max Altitude 27,600 ft / 8,412 m
Waypoints 4
Social Downloads 1
Likes 0
Share VATSIM

Download

Looking for another format? Having issues loading an existing format? Contact us
Advertisement - Login to hide

Notes

Basic altitude profile: - Ascent Rate: 2500ft/min - Ascent Speed: 250kts - Cruise Altitude: 35000ft - Cruise Speed: 420kts - Descent Rate: 1500ft/min - Descent Speed: 250kts Options: - Use NATs: yes - Use PACOTS: yes - Use low airways: yes - Use high airways: yes

Route

GMMH ROYAL B600 GDV GCLP

ID Type Via Altitude Latitude Longitude Leg Dist Tot Dist Heading (true) Name
O GMMH APT - 0 ft / 0 m 23.71829˚ -15.93199˚ - 0 nm - DAKHLA
ROYAL FIX - 27,600 ft / 8,412 m 25.00000˚ -15.78674˚ 77 nm 77 nm 6° / 6° -
GDV VOR B600 (AWY-LO) 8,500 ft / 2,591 m 28.07708˚ -15.42899˚ 185 nm 263 nm 6° / 6° GRAN CANARIA VOR-DME
O GCLP APT - 0 ft / 0 m 27.93154˚ -15.38559˚ 9 nm 272 nm 165° / 165° Gran Canaria

Altitude Profile

Advertisement - Login to hide

Weather


0- 5 10 15 20 25 30 35+ Temperature / ° C

Clouds and Precipitation
Forecast for 2018-05-24 12:00 UTC. Updated an hour ago

Ground ~20,000 ft ~40,000 ft Winds

GMMH

Details ICAO GMMH (VIL)
Name DAKHLA
Region Morocco
Timezone Africa/El_Aaiun (UTC+0.0)
Stats Elevation 36 ft / 11 m (AMSL)
Location 23.718294° -15.931993°
Runways 1
Magnetic Variation 5.217° W

METAR

GMMH 241200Z 01017KT CAVOK 22/12 Q1018 NOSIG

Decode

TAF

TAF GMMH 241100Z 2412/2518 36018KT 8000 FEW016= TAF GMMI 241100Z 2412/2518 25010KT 6000 FEW016 SCT030 BECMG 2420/2422 VRB02KT BECMG 2510/2512 30008KT

Decode

Departure Runways

ID Width Length Bearing (true) Bearing (mag) Surface Threshold Offset Overrun Length
03 148 ft / 45 m 9,886 ft / 3,013 m 22.66° 27.88° Asphalt 0 ft / 0 m 323 ft / 98 m
21 148 ft / 45 m 9,886 ft / 3,013 m 202.67° 207.89° Asphalt 0 ft / 0 m 377 ft / 115 m

GCLP

Details ICAO GCLP (LPA)
Name Gran Canaria
Region Canary Islands
Timezone Atlantic/Canary (UTC+1.0)
Stats Elevation 77 ft / 23 m (AMSL)
Location 27.931544° -15.385592°
Runways 2
Magnetic Variation 4.634° W

METAR

GCLP 241200Z 01009KT 320V080 9999 FEW040 BKN060 22/13 Q1019 WS ALL RWY NOSIG

Decode

TAF

TAF GCLP 240800Z 2409/2509 01015KT 9999 SCT035 TX24/2414Z TN18/2505Z PROB40 TEMPO 2412/2417 18006KT

Decode

Destination Runways

ID Width Length Bearing (true) Bearing (mag) Surface Threshold Offset Overrun Length
03L 148 ft / 45 m 10,203 ft / 3,110 m 21.33° 25.96° Asphalt 0 ft / 0 m 656 ft / 200 m
03R 148 ft / 45 m 10,200 ft / 3,109 m 21.32° 25.95° Asphalt 0 ft / 0 m 673 ft / 205 m
21L 148 ft / 45 m 10,200 ft / 3,109 m 201.33° 205.96° Asphalt 0 ft / 0 m 689 ft / 210 m
21R 148 ft / 45 m 10,203 ft / 3,110 m 201.33° 205.96° Asphalt 0 ft / 0 m 755 ft / 230 m

Approach Navaids

Runway Type Ident Frequency Range Bearing (true) Bearing (mag) Slope Elevation
03L Localiser ILP 109.90 MHz 18 nm / 33 km 21.33° 25.97° - 77 ft / 23 m (AMSL)
03L Glidescope ILP 109.90 MHz 10 nm / 19 km 21.33° 25.97° 3.00° 102 ft / 31 m (AMSL)
03L DME ILP 109.90 MHz 18 nm / 33 km - - - 102 ft / 31 m (AMSL)
21R Localiser RLP 110.70 MHz 18 nm / 33 km 201.32° 205.96° - 77 ft / 23 m (AMSL)
21R Glidescope RLP 110.70 MHz 10 nm / 19 km 201.33° 205.97° 3.00° 77 ft / 23 m (AMSL)
21R DME RLP 110.70 MHz 18 nm / 33 km - - - 57 ft / 17 m (AMSL)